星链-36471(STARLINK-36471)

导读 | 豆包AI

STARLINK-36471是美国SpaceX星链星座的一员,于2026年1月4日由猎鹰9号火箭发射升空,是该公司2026年首批星链任务的组成部分,部署于低地球轨道。 作为全球规模最大低轨卫星互联网星座的新成员,它将进一步拓展星链网络覆盖范围,提升卫星通信容量,为全球用户提供高速宽带互联网服务,助力星链完成星座组网部署,巩固SpaceX在低轨卫星通信领域的领先地位。

基本信息
目录编号:
67324
目录名称:
STARLINK-36471
国际标识:
2026-002V
轨道中心:
EARTH
卫星名称:
星链-36471
卫星全名:
星链-36471(STARLINK-36471)
卫星状态:
在轨 (已飞行115 天)
发射日期:
2026-01-04 UTC
国别 :
美国 (US)
星等 :
--
轨道信息
数据来源 国际轨道数据
星历时间: 2026-04-28T09:46:55+0800
22小时前
查看轨道信息
半长轴: 6861.161km
偏心率: 0.0001289
轨道倾角: 43.003°
近地点辐角 280.701°
升交点赤经 46.193°
平近点角 79.370°
近地点: 482.139km
远地点: 483.909km
周期: 94.266分钟
每日圈数: 15.275887
详细信息
固有亮度:
5
最大亮度:
2.5
卫星平台:
Starlink V1.0
覆盖范围:
全球
运营商:
太空探索技术公司
运营商所在国:
美国
制造商(研发单位):
太空探索技术公司
制造商所在国:
美国
使用方式:
暂无
卫星简介
Starlink 计划是 SpaceX 推出的全球卫星互联网项目,通过发射低轨道卫星,为全球尤其是偏远地区提供高速、低延迟的互联网服务。自 2019 年起,Starlink 已部署数千颗卫星,旨在缩小全球数字鸿沟,推动互联网普及。该项目还为军事、航空等行业提供通信支持,带来广泛经济效益。
2D轨道图
3D轨道图
轨道高度分析图
轨道倾角分析图
轨道综合分析图
查看轨道综合分析图